EA1QW Weather Reports


Display with metric or nautical units.
time (UTC)temp
F
wind
direction
speed
MPH
gust
MPH
rain 1hr
in
rain 24hr
in
rain mn
in
humidity
%
barometer
mb
20170822204524 68 296 0.0 0.0 0.00 0.12 0.02 88 1019.5
20170822204026 68 296 0.0 1.0 0.00 0.12 0.02 88 1019.5
20170822203524 68 296 0.0 1.0 0.00 0.12 0.02 88 1019.5
20170822203019 68 296 0.0 0.0 0.00 0.12 0.02 88 1019.5
20170822202520 68 296 0.0 2.0 0.00 0.12 0.02 88 1019.5
20170822202033 68 296 0.0 3.0 0.00 0.12 0.02 88 1019.5
20170822201528 68 296 0.0 4.0 0.00 0.12 0.02 88 1019.5
20170822201032 68 296 1.0 5.0 0.00 0.12 0.02 87 1019.4
20170822200531 68 296 1.0 5.0 0.00 0.12 0.02 87 1019.4
20170822200015 68 297 1.0 5.0 0.00 0.12 0.02 87 1019.4
20170822195533 68 297 0.0 4.0 0.00 0.12 0.02 87 1019.1
20170822195031 68 297 1.0 4.0 0.00 0.12 0.02 87 1019.1
20170822194531 69 297 0.0 3.0 0.00 0.12 0.02 87 1019.1
20170822194030 69 297 1.0 4.0 0.00 0.12 0.02 86 1019.1
20170822193531 69 297 1.0 4.0 0.00 0.12 0.02 86 1019.1
20170822193027 69 297 1.0 2.0 0.00 0.12 0.02 86 1019.1
20170822192527 69 297 0.0 3.0 0.00 0.12 0.02 86 1018.9
20170822192026 69 297 1.0 3.0 0.00 0.12 0.02 86 1018.9
20170822191523 69 297 2.0 5.0 0.00 0.12 0.02 86 1018.9
20170822191024 69 297 0.0 6.0 0.00 0.12 0.02 86 1018.8
20170822190523 69 296 3.0 7.0 0.00 0.12 0.02 85 1018.8
20170822190018 70 288 3.0 7.0 0.00 0.12 0.02 85 1018.8
20170822185534 70 294 2.0 7.0 0.00 0.12 0.02 85 1018.6
20170822185029 70 277 1.0 8.0 0.00 0.12 0.02 85 1018.6
20170822184525 70 275 4.0 8.0 0.00 0.12 0.02 84 1018.6
20170822184023 70 264 3.0 8.0 0.00 0.12 0.02 84 1018.5
20170822183518 70 301 2.0 11.0 0.00 0.12 0.02 84 1018.5
20170822183015 70 294 3.0 11.0 0.00 0.12 0.02 84 1018.5
20170822182519 71 302 4.0 9.0 0.00 0.12 0.02 84 1018.2
20170822182021 71 263 3.0 8.0 0.00 0.12 0.02 83 1018.2
20170822181521 71 309 4.0 8.0 0.00 0.12 0.02 83 1018.2
20170822181033 71 298 4.0 8.0 0.00 0.12 0.02 84 1018.1
20170822180533 71 289 2.0 8.0 0.00 0.12 0.02 84 1018.1
20170822180027 71 304 4.0 8.0 0.00 0.12 0.02 83 1018.1
20170822175531 71 240 4.0 9.0 0.00 0.12 0.02 83 1018.0
20170822175028 71 265 4.0 9.0 0.00 0.12 0.02 83 1018.0
20170822174530 71 298 5.0 10.0 0.00 0.12 0.02 83 1018.0
20170822174027 71 324 5.0 10.0 0.00 0.12 0.02 83 1018.0
20170822173525 72 311 3.0 7.0 0.00 0.12 0.02 81 1018.0
20170822173019 72 284 4.0 9.0 0.00 0.12 0.02 82 1018.0
20170822172520 71 331 4.0 9.0 0.00 0.12 0.02 82 1018.0
20170822172019 71 331 3.0 9.0 0.00 0.12 0.02 83 1018.0
20170822171520 71 287 5.0 10.0 0.00 0.12 0.02 82 1018.0
20170822171016 72 307 4.0 10.0 0.00 0.12 0.02 82 1017.9
20170822170516 72 296 4.0 10.0 0.00 0.12 0.02 82 1017.9
20170822170033 72 338 4.0 10.0 0.00 0.12 0.02 82 1017.9
20170822165533 72 302 5.0 11.0 0.00 0.12 0.02 80 1017.8
20170822165032 72 13 5.0 11.0 0.00 0.12 0.02 81 1017.8
20170822164529 72 355 6.0 9.0 0.00 0.12 0.02 79 1017.8
20170822164026 72 341 3.0 11.0 0.00 0.12 0.02 81 1017.6
20170822163528 72 297 4.0 11.0 0.00 0.12 0.02 80 1017.6
20170822163023 72 336 3.0 9.0 0.00 0.12 0.02 80 1017.6
20170822162520 72 309 4.0 10.0 0.00 0.12 0.02 80 1017.6
20170822162034 73 327 7.0 10.0 0.00 0.12 0.02 79 1017.6
20170822161534 73 308 4.0 9.0 0.00 0.12 0.02 80 1017.6
20170822161030 72 296 4.0 10.0 0.00 0.12 0.02 81 1017.9
20170822160528 73 300 5.0 7.0 0.00 0.12 0.02 79 1017.9
20170822160023 73 351 5.0 8.0 0.00 0.12 0.02 79 1017.9
20170822155522 73 299 3.0 9.0 0.00 0.12 0.02 80 1018.0
20170822155017 73 298 5.0 9.0 0.00 0.12 0.02 78 1018.0
20170822154533 74 349 3.0 10.0 0.00 0.12 0.02 78 1018.0
20170822154027 74 300 3.0 9.0 0.00 0.12 0.02 77 1018.0
20170822153532 73 5 1.0 12.0 0.00 0.12 0.02 79 1018.0
20170822153027 72 296 6.0 11.0 0.00 0.12 0.02 79 1018.0
20170822152522 72 290 7.0 11.0 0.00 0.12 0.02 79 1018.0
20170822152019 73 280 6.0 10.0 0.00 0.12 0.02 78 1018.0
20170822151516 73 294 5.0 12.0 0.00 0.12 0.02 78 1018.0
20170822151022 73 284 6.0 12.0 0.00 0.12 0.02 80 1018.0
20170822150524 73 313 6.0 11.0 0.00 0.12 0.02 78 1018.0
20170822150019 74 329 5.0 10.0 0.00 0.12 0.02 78 1018.0
20170822145522 74 275 4.0 11.0 0.00 0.12 0.02 78 1018.0
20170822145015 73 269 6.0 11.0 0.00 0.12 0.02 79 1018.0
20170822144534 74 299 7.0 11.0 0.00 0.12 0.02 78 1018.0
20170822144028 74 15 4.0 10.0 0.00 0.12 0.02 77 1018.1
20170822143525 74 332 4.0 10.0 0.00 0.12 0.02 78 1018.1
20170822143026 75 355 4.0 9.0 0.00 0.12 0.02 76 1018.1
20170822142527 74 296 6.0 11.0 0.00 0.12 0.02 76 1018.1
20170822142022 73 330 8.0 13.0 0.00 0.12 0.02 77 1018.1
20170822141524 74 295 7.0 14.0 0.00 0.12 0.02 77 1018.1
20170822141017 74 280 5.0 14.0 0.00 0.12 0.02 76 1018.2
20170822140522 74 278 7.0 13.0 0.00 0.12 0.02 76 1018.2
20170822140024 74 285 5.0 13.0 0.00 0.12 0.02 77 1018.2
20170822135521 74 291 7.0 14.0 0.00 0.12 0.02 75 1018.3
20170822135019 74 301 4.0 11.0 0.00 0.12 0.02 76 1018.3
20170822134518 74 284 7.0 11.0 0.00 0.12 0.02 75 1018.3
20170822134014 74 264 4.0 12.0 0.00 0.12 0.02 76 1018.3
20170822133518 74 292 6.0 13.0 0.00 0.12 0.02 76 1018.3
20170822133016 73 298 8.0 13.0 0.00 0.12 0.02 77 1018.3
20170822132533 73 283 5.0 12.0 0.00 0.12 0.02 77 1018.3
20170822132024 73 290 6.0 15.0 0.00 0.12 0.02 78 1018.3
20170822131519 74 296 7.0 15.0 0.00 0.12 0.02 77 1018.3
20170822131022 74 293 6.0 13.0 0.00 0.12 0.02 76 1018.1
20170822130516 74 285 7.0 14.0 0.00 0.12 0.02 76 1018.1
20170822130029 73 292 7.0 14.0 0.00 0.12 0.02 77 1018.1
20170822125527 73 306 8.0 14.0 0.00 0.12 0.02 78 1018.1
20170822125023 74 275 4.0 13.0 0.00 0.12 0.02 78 1018.1
20170822124524 74 280 6.0 14.0 0.00 0.12 0.02 77 1018.1
20170822124019 73 290 8.0 14.0 0.00 0.12 0.02 77 1018.1
20170822123519 73 308 6.0 14.0 0.00 0.12 0.02 77 1018.1
20170822123018 73 288 7.0 14.0 0.00 0.12 0.02 77 1018.1
20170822122522 73 280 8.0 14.0 0.00 0.12 0.02 77 1018.0
20170822122015 74 313 8.0 14.0 0.00 0.12 0.02 75 1018.0
20170822121530 73 277 8.0 14.0 0.00 0.12 0.02 77 1018.0
20170822121026 73 298 7.0 16.0 0.00 0.12 0.02 78 1018.0
20170822120529 73 285 7.0 16.0 0.00 0.12 0.02 77 1018.0
20170822120025 73 286 6.0 14.0 0.00 0.12 0.02 77 1018.0
20170822115524 73 271 4.0 14.0 0.00 0.12 0.02 77 1018.0
20170822115017 74 291 7.0 14.0 0.00 0.12 0.02 75 1018.0
20170822114518 73 257 6.0 13.0 0.00 0.12 0.02 78 1018.0
20170822114031 73 254 6.0 13.0 0.00 0.12 0.02 77 1017.9
20170822113529 73 288 9.0 14.0 0.00 0.12 0.02 78 1017.9
20170822113021 73 288 8.0 14.0 0.00 0.12 0.02 78 1017.9
20170822112517 72 281 7.0 14.0 0.00 0.12 0.02 79 1017.9
20170822112032 73 278 9.0 13.0 0.00 0.12 0.02 77 1017.9
20170822111511 73 292 5.0 13.0 0.00 0.12 0.02 79 1017.9
20170822111030 73 281 7.0 12.0 0.00 0.12 0.02 78 1017.9
20170822110529 73 262 7.0 13.0 0.00 0.12 0.02 79 1017.9
20170822110029 73 278 7.0 14.0 0.00 0.12 0.02 78 1017.9
20170822105517 73 298 6.0 14.0 0.00 0.12 0.02 77 1017.9
20170822105019 73 301 5.0 13.0 0.00 0.12 0.02 78 1017.9
20170822104520 73 294 7.0 13.0 0.00 0.12 0.02 78 1017.9
20170822104018 73 298 6.0 13.0 0.00 0.12 0.02 79 1017.6
20170822103517 73 288 7.0 13.0 0.00 0.12 0.02 80 1017.6
20170822103030 72 306 7.0 14.0 0.00 0.12 0.02 79 1017.6
20170822102533 72 271 6.0 14.0 0.00 0.12 0.02 79 1017.5
20170822102027 73 313 7.0 12.0 0.00 0.12 0.02 79 1017.5
20170822101526 72 300 5.0 12.0 0.00 0.12 0.02 79 1017.5
20170822101027 72 250 5.0 11.0 0.00 0.12 0.02 81 1017.4
20170822100533 72 269 7.0 11.0 0.00 0.12 0.02 80 1017.4
20170822100025 72 271 6.0 11.0 0.00 0.12 0.02 81 1017.4
20170822095529 72 284 5.0 11.0 0.00 0.12 0.02 81 1017.4
20170822095027 72 265 5.0 10.0 0.00 0.12 0.02 81 1017.4
20170822094529 72 298 6.0 10.0 0.00 0.12 0.02 81 1017.4
20170822094027 72 310 4.0 9.0 0.00 0.12 0.02 82 1017.3
20170822093526 72 276 5.0 9.0 0.00 0.12 0.02 82 1017.3
20170822093024 72 262 4.0 9.0 0.00 0.12 0.02 83 1017.3
20170822092526 72 290 5.0 9.0 0.00 0.12 0.02 83 1017.2
20170822092023 72 282 4.0 9.0 0.00 0.12 0.02 84 1017.2
20170822091522 71 304 4.0 9.0 0.00 0.12 0.02 84 1017.2
20170822091020 71 297 4.0 10.0 0.00 0.12 0.02 84 1017.2
20170822090519 71 284 4.0 10.0 0.00 0.12 0.02 85 1017.2
20170822090033 70 248 4.0 11.0 0.00 0.12 0.02 85 1017.2
20170822085516 70 271 5.0 11.0 0.00 0.12 0.02 85 1017.2
20170822085012 70 255 5.0 11.0 0.00 0.12 0.02 86 1017.2
20170822084515 70 261 6.0 11.0 0.00 0.12 0.02 86 1017.2
20170822084032 70 259 5.0 10.0 0.00 0.12 0.02 87 1017.0
20170822083533 70 263 4.0 8.0 0.00 0.12 0.02 87 1017.0
20170822083030 70 252 5.0 10.0 0.00 0.12 0.02 87 1017.0
20170822082528 69 234 6.0 10.0 0.00 0.12 0.02 89 1016.9
20170822082047 69 260 3.0 8.0 0.00 0.12 0.02 90 1016.9
20170822081525 68 277 5.0 9.0 0.00 0.12 0.02 91 1016.9
20170822081022 68 241 6.0 12.0 0.00 0.12 0.02 91 1016.8
20170822080524 68 245 5.0 12.0 0.00 0.12 0.02 92 1016.8
20170822080026 68 257 6.0 12.0 0.00 0.12 0.02 92 1016.8
20170822075526 68 263 6.0 12.0 0.00 0.12 0.02 92 1016.5
20170822075021 68 292 6.0 12.0 0.00 0.12 0.02 92 1016.5
20170822074545 68 267 4.0 12.0 0.00 0.12 0.02 93 1016.5
20170822074041 68 250 4.0 11.0 0.00 0.12 0.02 93 1016.4
20170822073519 68 250 4.0 13.0 0.00 0.12 0.02 93 1016.4
20170822073033 68 252 6.0 13.0 0.00 0.12 0.02 93 1016.4
20170822072529 68 273 3.0 10.0 0.00 0.12 0.02 94 1016.4
20170822072022 67 245 3.0 13.0 0.00 0.12 0.02 94 1016.4
20170822071521 67 243 5.0 13.0 0.00 0.12 0.02 94 1016.4
20170822071018 67 261 4.0 9.0 0.00 0.12 0.02 94 1016.1
20170822070521 67 243 4.0 10.0 0.00 0.12 0.02 94 1016.1
20170822070018 67 270 4.0 10.0 0.00 0.12 0.02 95 1016.1
20170822065518 67 275 4.0 9.0 0.00 0.12 0.02 95 1015.9
20170822065031 67 260 3.0 6.0 0.00 0.12 0.02 95 1015.9
20170822064533 67 250 1.0 4.0 0.00 0.12 0.02 95 1015.9
20170822064030 67 250 2.0 8.0 0.00 0.12 0.02 95 1015.7
20170822063522 67 259 2.0 8.0 0.00 0.12 0.02 95 1015.7
20170822063030 67 248 3.0 5.0 0.00 0.12 0.02 95 1015.7
20170822062525 67 267 3.0 5.0 0.00 0.12 0.02 95 1015.4
20170822062048 67 268 2.0 6.0 0.00 0.12 0.02 95 1015.4
20170822061528 67 244 3.0 6.0 0.00 0.12 0.02 95 1015.4
20170822061024 66 250 2.0 7.0 0.00 0.12 0.02 95 1015.4
20170822060525 66 247 3.0 7.0 0.00 0.12 0.02 95 1015.4
20170822060022 66 262 0.0 2.0 0.00 0.12 0.02 94 1015.4
20170822055520 66 262 0.0 2.0 0.00 0.12 0.02 95 1015.2
20170822055022 66 262 0.0 1.0 0.00 0.12 0.02 95 1015.2
20170822054520 66 262 0.0 3.0 0.00 0.12 0.02 95 1015.2
20170822054021 66 262 0.0 3.0 0.00 0.12 0.02 95 1015.0
20170822053515 66 262 0.0 5.0 0.00 0.12 0.02 96 1015.0
20170822053030 65 262 2.0 5.0 0.00 0.12 0.02 96 1015.0
20170822052530 65 90 0.0 0.0 0.00 0.12 0.02 96 1014.9
20170822052032 65 90 0.0 2.0 0.00 0.12 0.02 96 1014.9
20170822051533 65 90 0.0 2.0 0.00 0.12 0.02 96 1014.9
20170822051029 65 90 0.0 2.0 0.00 0.12 0.02 96 1014.8
20170822050530 65 90 0.0 0.0 0.00 0.12 0.02 96 1014.8
20170822050027 65 90 0.0 0.0 0.00 0.12 0.02 96 1014.8
20170822045527 66 90 0.0 0.0 0.00 0.12 0.02 96 1014.5
20170822045023 66 90 0.0 0.0 0.00 0.12 0.02 96 1014.5
20170822044524 66 90 0.0 0.0 0.00 0.12 0.02 96 1014.5
20170822044023 66 90 0.0 0.0 0.00 0.12 0.02 96 1014.3
20170822043522 66 90 0.0 1.0 0.00 0.12 0.02 96 1014.3
20170822043015 66 90 0.0 1.0 0.00 0.12 0.02 96 1014.3
20170822042517 66 90 0.0 0.0 0.00 0.12 0.02 96 1014.3
20170822042018 66 90 0.0 0.0 0.00 0.12 0.02 96 1014.3
20170822041526 66 90 0.0 0.0 0.00 0.12 0.02 96 1014.3
20170822041024 66 90 0.0 0.0 0.00 0.12 0.02 96 1014.3
20170822040529 66 90 0.0 0.0 0.00 0.12 0.02 96 1014.3
20170822040028 66 90 0.0 1.0 0.00 0.12 0.02 96 1014.3
20170822035529 67 90 0.0 1.0 0.00 0.12 0.02 96 1014.3
20170822035028 67 90 0.0 0.0 0.00 0.12 0.02 96 1014.3
20170822034532 67 90 0.0 0.0 0.00 0.12 0.02 96 1014.3
20170822034031 67 90 0.0 0.0 0.00 0.12 0.02 96 1014.1
20170822033531 67 90 0.0 0.0 0.00 0.12 0.02 96 1014.1
20170822033014 67 90 0.0 0.0 0.00 0.12 0.02 96 1014.1
20170822032514 67 90 0.0 0.0 0.00 0.12 0.02 96 1014.3
20170822032030 67 90 0.0 0.0 0.00 0.12 0.02 95 1014.3
20170822031521 67 90 0.0 0.0 0.00 0.12 0.02 95 1014.3
20170822031033 67 90 0.0 0.0 0.04 0.12 0.02 96 1013.9
20170822030518 67 90 0.0 0.0 0.08 0.12 0.02 96 1013.9
20170822030017 67 90 0.0 0.0 0.08 0.12 0.02 95 1013.9
20170822025519 67 90 0.0 0.0 0.12 0.12 0.02 95 1013.9
20170822025016 67 90 0.0 0.0 0.12 0.12 0.02 95 1013.9
20170822024518 67 90 0.0 0.0 0.12 0.12 0.02 95 1013.9
20170822024016 67 90 0.0 3.0 0.12 0.12 0.02 95 1013.8
20170822023518 67 90 1.0 8.0 0.12 0.12 0.02 95 1013.8
20170822023016 67 90 5.0 8.0 0.12 0.12 0.02 95 1013.8
20170822022518 67 171 2.0 4.0 0.12 0.12 0.02 95 1013.8
20170822022016 67 173 0.0 3.0 0.12 0.12 0.02 95 1013.8
20170822021518 67 173 0.0 4.0 0.12 0.12 0.02 95 1013.8
20170822021019 67 173 1.0 4.0 0.08 0.08 0.02 95 1013.7
20170822020527 67 277 2.0 5.0 0.04 0.04 0.01 95 1013.7
20170822020027 66 284 0.0 5.0 0.04 0.04 0.01 95 1013.7
20170822015528 66 246 1.0 2.0 0.00 0.00 0.00 94 1013.8
20170822015026 66 245 0.0 3.0 0.00 0.00 0.00 94 1013.8
20170822014531 66 248 1.0 3.0 0.00 0.00 0.00 94 1013.8
20170822014026 66 273 1.0 3.0 0.00 0.00 0.00 94 1013.4
20170822013528 66 273 1.0 3.0 0.00 0.00 0.00 94 1013.4
20170822013027 66 273 0.0 0.0 0.00 0.00 0.00 94 1013.4
20170822012525 66 273 0.0 0.0 0.00 0.00 0.00 94 1013.2
20170822012021 66 273 0.0 0.0 0.00 0.00 0.00 94 1013.2
20170822011522 66 273 0.0 0.0 0.00 0.00 0.00 94 1013.2
20170822010521 66 273 0.0 2.0 0.00 0.00 0.00 94 1013.0
20170822010016 66 273 1.0 2.0 0.00 0.00 0.00 94 1013.0
20170822005517 66 273 0.0 0.0 0.00 0.00 0.00 94 1013.0
20170822005033 66 273 0.0 0.0 0.00 0.00 0.00 94 1013.0
20170822004517 66 273 0.0 0.0 0.00 0.00 0.00 94 1013.0
20170822004016 67 273 0.0 0.0 0.00 0.00 0.00 94 1013.0
20170822003514 67 273 0.0 3.0 0.00 0.00 0.00 94 1013.0
20170822003016 67 273 0.0 3.0 0.00 0.00 0.00 94 1013.0
20170822002518 66 273 0.0 0.0 0.00 0.00 0.00 94 1013.1
20170822002019 66 273 0.0 0.0 0.00 0.00 0.00 94 1013.1
20170822001518 66 273 0.0 3.0 0.00 0.00 0.00 94 1013.1
20170822001016 66 273 0.0 3.0 0.00 0.00 0.00 94 1013.2
20170822000518 66 273 0.0 2.0 0.00 0.00 0.00 94 1013.2
20170822000017 66 273 0.0 0.0 0.00 0.00 0.00 94 1013.2
20170821235521 66 273 0.0 0.0 0.00 0.00 0.00 93 1013.2
20170821235022 66 273 0.0 1.0 0.00 0.00 0.00 93 1013.2
20170821234520 66 273 0.0 1.0 0.00 0.00 0.00 93 1013.2
20170821234019 67 273 0.0 0.0 0.00 0.00 0.00 93 1013.2
20170821233520 67 273 0.0 0.0 0.00 0.00 0.00 92 1013.2
20170821233025 67 273 0.0 0.0 0.00 0.00 0.00 92 1013.2
20170821232522 67 273 0.0 0.0 0.00 0.00 0.00 92 1013.2
20170821232021 67 273 0.0 0.0 0.00 0.00 0.00 92 1013.2
20170821231521 67 273 0.0 0.0 0.00 0.00 0.00 92 1013.2
20170821231020 67 273 0.0 0.0 0.00 0.00 0.00 92 1013.3
20170821230526 67 273 0.0 0.0 0.00 0.00 0.00 92 1013.3
20170821230025 67 273 0.0 0.0 0.00 0.00 0.00 92 1013.3
20170821225525 67 273 0.0 0.0 0.00 0.00 0.00 92 1013.4
20170821225029 67 273 0.0 0.0 0.00 0.00 0.00 92 1013.4
20170821224530 68 273 0.0 0.0 0.00 0.00 0.00 92 1013.4
20170821224015 68 273 0.0 0.0 0.00 0.00 0.00 92 1013.6
20170821223519 68 273 0.0 0.0 0.00 0.00 0.00 92 1013.6
20170821223018 68 273 0.0 0.0 0.00 0.00 0.00 92 1013.6
20170821222516 68 273 0.0 0.0 0.00 0.00 0.00 92 1013.8
20170821222024 68 273 0.0 0.0 0.00 0.00 0.00 91 1013.8
20170821221525 68 273 0.0 0.0 0.00 0.00 0.00 91 1013.8
20170821221020 68 273 0.0 0.0 0.00 0.00 0.00 91 1013.7
20170821220522 68 273 0.0 0.0 0.00 0.00 0.00 91 1013.7
20170821220025 68 273 0.0 0.0 0.00 0.00 0.00 91 1013.7
20170821215523 68 273 0.0 0.0 0.00 0.00 0.00 91 1013.7
20170821215022 68 273 0.0 0.0 0.00 0.00 0.00 90 1013.7
20170821214523 68 273 0.0 0.0 0.00 0.00 0.00 90 1013.7
20170821214021 69 273 0.0 0.0 0.00 0.00 0.00 90 1013.7
20170821213522 69 273 0.0 0.0 0.00 0.00 0.00 90 1013.7
20170821213018 69 273 0.0 0.0 0.00 0.00 0.00 90 1013.7
20170821212519 69 273 0.0 2.0 0.00 0.00 0.00 90 1013.7
20170821212015 69 273 0.0 2.0 0.00 0.00 0.00 90 1013.7
20170821211518 69 273 0.0 1.0 0.00 0.00 0.00 90 1013.7
20170821211014 69 273 0.0 3.0 0.00 0.00 0.00 89 1013.5
20170821210512 69 273 0.0 4.0 0.00 0.00 0.00 89 1013.5
20170821210033 69 273 0.0 6.0 0.00 0.00 0.00 89 1013.5
20170821205531 69 274 4.0 6.0 0.00 0.00 0.00 88 1013.3
20170821205025 70 277 3.0 5.0 0.00 0.00 0.00 87 1013.3